Location: Hoyos del Collado
(40.3594°N, 5.2003°W)
Time: 10:19:51
(UTC+00:00)

USA 229 - Visible Passes

Search period start: 24 July 2024 00:00
Search period end: 03 August 2024 00:00
Orbit: 886 x 1325 km, 63.4° (Epoch: 21 July)

Date Brightness Start Highest point End Pass type
(mag) Time Alt. Az. Time Alt. Az. Time Alt. Az.
24 Jul 6.0 00:53:32 10° WNW 00:57:28 16° NNW 01:01:37 10° NNE visible
24 Jul 6.3 04:41:04 10° NNW 04:46:08 19° NNE 04:51:28 10° ENE visible
24 Jul 5.0 20:27:45 10° SE 20:30:18 13° ESE 20:32:53 10° E visible
24 Jul 3.4 22:14:45 14° SSW 22:20:00 88° ESE 22:26:37 10° NE visible
25 Jul 5.7 00:07:05 10° W 00:11:52 22° NNW 00:17:01 10° NNE visible
25 Jul 6.7 02:05:17 10° N 02:05:51 10° N 02:06:25 10° N visible
25 Jul 6.5 03:56:29 10° N 04:00:25 15° NNE 04:04:30 10° NE visible
25 Jul 3.5 21:29:24 10° SSW 21:35:13 54° ESE 21:41:32 10° NE visible
25 Jul 5.2 23:21:02 10° WSW 23:26:27 31° NW 23:32:21 10° NNE visible
26 Jul 6.4 01:17:47 10° NNW 01:19:55 11° NNW 01:22:07 10° N visible
26 Jul 6.6 03:11:57 10° N 03:14:34 12° NNE 03:17:14 10° NE visible
26 Jul 4.1 20:45:23 10° S 20:50:36 32° ESE 20:56:11 10° NE visible
26 Jul 4.5 22:35:23 10° WSW 22:41:12 46° NW 22:47:36 10° NNE visible
27 Jul 6.3 00:30:44 10° NW 00:34:05 14° NNW 00:37:35 10° N visible
27 Jul 6.8 02:27:32 10° N 02:28:37 10° N 02:29:42 10° NNE visible
27 Jul 6.4 04:17:01 10° NNW 04:22:40 23° NE 04:28:39 10° E visible
27 Jul 3.7 21:50:08 10° SW 21:56:08 71° NW 22:02:46 10° NNE visible
27 Jul 6.1 23:44:05 10° WNW 23:48:24 18° NNW 23:52:59 10° NNE visible
28 Jul 6.5 03:32:25 10° NNW 03:37:02 17° NNE 03:41:54 10° ENE visible
28 Jul 3.4 21:05:18 10° SSW 21:11:15 73° ESE 21:17:48 10° NE visible
28 Jul 5.6 22:57:48 10° W 23:02:52 25° NW 23:08:21 10° NNE visible
29 Jul 6.7 00:55:20 10° NNW 00:56:39 11° N 00:57:59 10° N visible
29 Jul 6.6 02:47:52 10° N 02:51:16 14° NNE 02:54:48 10° NE visible
29 Jul 5.7 04:37:40 10° NNW 04:44:31 38° NE 04:51:52 10° ESE visible
29 Jul 3.7 20:20:56 10° S 20:26:32 44° ESE 20:32:37 10° NE visible
29 Jul 5.0 22:11:54 10° WSW 22:17:31 36° NW 22:23:39 10° NNE visible
30 Jul 6.5 00:08:05 10° NW 00:10:45 12° NNW 00:13:31 10° N visible
30 Jul 6.8 02:03:22 10° N 02:05:22 11° NNE 02:07:25 10° NNE visible
30 Jul 6.2 03:52:59 10° NNW 03:59:09 27° NE 04:05:42 10° E visible
30 Jul 4.2 21:26:25 10° SW 21:32:21 54° NW 21:38:53 10° NNE visible
30 Jul 6.4 23:21:12 10° WNW 23:24:58 16° NNW 23:28:57 10° N visible
31 Jul 6.5 03:08:22 10° NNW 03:13:37 20° NNE 03:19:10 10° ENE visible
31 Jul 3.5 20:41:20 10° SW 20:47:21 85° WNW 20:54:00 10° NNE visible
31 Jul 6.0 22:34:42 10° W 22:39:21 21° NNW 22:44:20 10° NNE visible
01 Aug 6.7 02:23:48 10° N 02:27:56 16° NNE 02:32:15 10° ENE visible
01 Aug 5.2 04:13:41 10° NNW 04:20:50 46° NE 04:28:33 10° ESE visible
01 Aug 3.5 19:56:41 10° SSW 20:02:33 60° ESE 20:08:57 10° NE visible
01 Aug 5.5 21:48:34 10° W 21:53:54 29° NW 21:59:40 10° NNE visible
01 Aug 6.7 23:45:33 10° NNW 23:47:27 11° NNW 23:49:24 10° N visible
02 Aug 6.8 01:39:15 10° N 01:42:06 12° NNE 01:45:02 10° NE visible
02 Aug 5.8 03:28:58 10° NNW 03:35:35 33° NE 03:42:38 10° ESE visible
02 Aug 4.8 21:02:52 10° WSW 21:08:37 42° NW 21:14:56 10° NNE visible
02 Aug 6.6 22:58:27 10° NW 23:01:36 14° NNW 23:04:53 10° N visible
